Showing default

PRISMA, 44072

Orbit data source: Space-Track

PRISMA, 44072 is a payload satellite owned by ASI (IT) in SSO that was launched on Fri, 22 Mar 2019 UTC via a VEGA launch vehicle from the French Guiana (FRGUI). Payload-class satellites include a variety of spacecraft equipped with specific instruments for various scientific and technological missions. These include communications satellites like Starlink; space stations such as the ISS; scientific satellites like the Hubble; Earth observation satellites from companies like Planet Labs, Umbra, and HawkEye 360; GPS; miniature CubeSats for education and research; and military/defense satellites.

Loading next visibility...
Identifier
44072, 2019-015A
Orbit
SSO
Country
Flag of ITIT
Related business
Manufacturer
OHB-I
Mission
Operational Civil Imaging
Bus & Motor
MITA, AOCS
Mass
879 kg wet, ~850 kg dry
Launch date (UTC)
2019-03-22 (7 years ago)
Launch vehicle
VEGA
Launch site
French Guiana (FRGUI)
Object type
Payload
Rocket body
Debris
Shape & HBR
Box + 1 Pan, 2.5 m
Radar Cross Section
6.874 m², Large (>1 m²)

Expand to show TLE details & history
Last TLE update: 22 hours ago

TLE from 22 hours ago
0 PRISMA
1 44072U 19015A   26172.52462719  .00000757  00000-0  98086-4 0  9991
2 44072  97.8639 247.2333 0001467  80.9086 279.2294 14.83654747392697
Epoch: 2026-06-21T12:35Z
TLE epoch observation values (Epoch: 2026-06-21T12:35:27.789Z)
Latitude
-0.00001°
Longitude
148.64386°
Altitude
620.675 km
Speed
7.549 km/s
True Right ascension
16h 28m 55s
True Declination
0° 00' 00"
Sunlit
Object was in full shadow at epoch
Visualization orbit readout
Latitude
Unknown
Longitude
Unknown
Altitude
Unknown
Speed
Unknown
Apparent Right ascension
Unknown
Apparent Declination
Unknown
Sunlit
N/A
Visualization observer readout
Local Sidereal Time
21:24:35
Azimuth
Unknown
Elevation
Unknown
Doppler factor
Unknown
Orbital elements
Apogee altitude
615.872 km
Perigee altitude
613.82 km
Semi-major axis
6,992.983 km
Eccentricity
0.00015
Inclination
97.8639°
RAAN
247.2333°
Arg. of periapsis
80.9086°
True anomaly
279.21281°
Mean anomaly
279.2294°
Eccentric anomaly
279.2211°
Mean motion
3.7115 °/min
Orbital period
97 mins
BSTAR
0.000098086
Loading maneuver chart data...
Computing Atmospheric mass density...
Loading historical data...
Loading historical data...
Loading historical data...
Loading historical data...
Loading historical data...
Loading historical data...
Loading historical data...
Other satellites on launch #15 in the year 2019 (2019-03-22 UTC)

Documentation

Showing up to 5 results
|